Location: Newark
(22.3060°N, 114.2134°E)
Time: 02:52:41
(UTC+00:00)

Explorer 11/Cluster Stage 4 - Pass Details

Date: 29 July 2021
Orbit: 467 x 1256 km, 28.8° (Epoch: 27 September)

Event Time Altitude Azimuth Distance (km) Brightness Sun altitude
Rises 05:25:23 0° 284° (WNW) 4,116 10.4 76.5°
Reaches altitude 10° 05:28:32 10° 289° (WNW) 3,081 9.9 75.8°
Maximum altitude 05:35:58 52° 4° (N) 1,268 8.5 74.1°
Drops below altitude 10° 05:42:07 10° 80° (E) 2,563 9.2 72.7°
Sets 05:44:32 0° 86° (E) 3,381 9.6 72.1°
